| Back to River Map | <<< Previous Forecast Point | | | Next Forecast Point >>> | Printer Version | Graph Version |  |
|
SACRAMENTO RIVER - ORD FERRY (ORFC1)
| Latitude: 39.63º N | Longitude: 122.00º W | Elevation: 115 Feet | | Forecast Type: Official Location |
| Location: Glenn County in California | Bulletin Group: Upper Sacramento | River Group: Upper Sacramento |
| Issuance Time: | Aug 31 2026 at 7:28 AM PDT | Next Issuance: | Sep 01 2026 at 9:00 AM PDT
| |
| Action/Monitor: 110.0 Feet | Minor Flood: 114.0 Feet | Moderate Flood: 121.7 Feet | Major Flood: 124.8 Feet |
# Tabular Observed and Forecast Hydrograph Information
#
# Location: Sacramento River - Ord Ferry (ORFC1)
#
# File Generation Time: 08/31/2026 at 07:29 AM PDT
# Data Interval: 1 Hour
#
# Most Recent Date & Time of Maximum Observed: 08/26/2026 at 06:00 PM PDT
# Maximum Observed Stage: 96.95 Feet
# Maximum Observed Flow: 7716 cfs
#
# Earliest Date & Time of Maximum Forecast: 08/31/2026 at 08:00 AM PDT
# Maximum Forecast Stage: 96.54 Feet
# Maximum Forecast Flow: 6732 cfs
#
# OBSERVED
#
# Date & Time (Local) Stage (Feet) Flow (cfs) Trend Observed Status
# ---------------------------------------------------------------------------------
08/26/2026 07 AM PDT 96.93 7667 Normal
08/26/2026 08 AM PDT 96.93 7667 0 Normal
08/26/2026 09 AM PDT 96.93 7667 0 Normal
08/26/2026 10 AM PDT 96.94 7692 + Normal
08/26/2026 11 AM PDT 96.94 7692 0 Normal
08/26/2026 12 PM PDT 96.94 7692 0 Normal
08/26/2026 01 PM PDT 96.94 7692 0 Normal
08/26/2026 02 PM PDT 96.95 7716 + Normal
08/26/2026 03 PM PDT 96.95 7716 0 Normal
08/26/2026 04 PM PDT 96.95 7716 0 Normal
08/26/2026 05 PM PDT 96.95 7716 0 Normal
08/26/2026 06 PM PDT 96.95 7716 0 Normal
08/26/2026 07 PM PDT 96.94 7692 - Normal
08/26/2026 08 PM PDT 96.94 7692 0 Normal
08/26/2026 09 PM PDT 96.94 7692 0 Normal
08/26/2026 10 PM PDT 96.94 7692 0 Normal
08/26/2026 11 PM PDT 96.93 7667 - Normal
08/27/2026 12 AM PDT 96.92 7643 - Normal
08/27/2026 01 AM PDT 96.91 7618 - Normal
08/27/2026 02 AM PDT 96.89 7570 - Normal
08/27/2026 03 AM PDT 96.86 7498 - Normal
08/27/2026 04 AM PDT 96.83 7427 - Normal
08/27/2026 05 AM PDT 96.81 7379 - Normal
08/27/2026 06 AM PDT 96.78 7306 - Normal
08/27/2026 07 AM PDT 96.77 7281 - Normal
08/27/2026 08 AM PDT 96.75 7232 - Normal
08/27/2026 09 AM PDT 96.74 7207 - Normal
08/27/2026 10 AM PDT 96.73 7183 - Normal
08/27/2026 11 AM PDT 96.73 7183 0 Normal
08/27/2026 12 PM PDT 96.73 7183 0 Normal
08/27/2026 01 PM PDT 96.73 7183 0 Normal
08/27/2026 02 PM PDT 96.73 7183 0 Normal
08/27/2026 03 PM PDT 96.74 7207 + Normal
08/27/2026 04 PM PDT 96.74 7207 0 Normal
08/27/2026 05 PM PDT 96.74 7207 0 Normal
08/27/2026 06 PM PDT 96.73 7183 - Normal
08/27/2026 07 PM PDT 96.73 7183 0 Normal
08/27/2026 08 PM PDT 96.73 7183 0 Normal
08/27/2026 09 PM PDT 96.72 7158 - Normal
08/27/2026 10 PM PDT 96.72 7158 0 Normal
08/27/2026 11 PM PDT 96.71 7134 - Normal
08/28/2026 12 AM PDT 96.71 7134 0 Normal
08/28/2026 01 AM PDT 96.71 7134 0 Normal
08/28/2026 02 AM PDT 96.71 7134 0 Normal
08/28/2026 03 AM PDT 96.72 7158 + Normal
08/28/2026 04 AM PDT 96.72 7158 0 Normal
08/28/2026 05 AM PDT 96.72 7158 0 Normal
08/28/2026 06 AM PDT 96.72 7158 0 Normal
08/28/2026 07 AM PDT 96.72 7158 0 Normal
08/28/2026 08 AM PDT 96.73 7183 + Normal
08/28/2026 09 AM PDT 96.73 7183 0 Normal
08/28/2026 10 AM PDT 96.73 7183 0 Normal
08/28/2026 11 AM PDT 96.73 7183 0 Normal
08/28/2026 12 PM PDT 96.72 7158 - Normal
08/28/2026 01 PM PDT 96.72 7158 0 Normal
08/28/2026 02 PM PDT 96.72 7158 0 Normal
08/28/2026 03 PM PDT 96.71 7134 - Normal
08/28/2026 04 PM PDT 96.71 7134 0 Normal
08/28/2026 05 PM PDT 96.70 7109 - Normal
08/28/2026 06 PM PDT 96.70 7109 0 Normal
08/28/2026 07 PM PDT 96.68 7061 - Normal
08/28/2026 08 PM PDT 96.68 7061 0 Normal
08/28/2026 09 PM PDT 96.67 7037 - Normal
08/28/2026 10 PM PDT 96.66 7013 - Normal
08/28/2026 11 PM PDT 96.66 7013 0 Normal
08/29/2026 12 AM PDT 96.66 7013 0 Normal
08/29/2026 01 AM PDT 96.65 6989 - Normal
08/29/2026 02 AM PDT 96.64 6965 - Normal
08/29/2026 03 AM PDT 96.63 6942 - Normal
08/29/2026 04 AM PDT 96.62 6918 - Normal
08/29/2026 05 AM PDT 96.61 6894 - Normal
08/29/2026 06 AM PDT 96.60 6871 - Normal
08/29/2026 07 AM PDT 96.59 6848 - Normal
08/29/2026 08 AM PDT 96.58 6824 - Normal
08/29/2026 09 AM PDT 96.57 6801 - Normal
08/29/2026 10 AM PDT 96.57 6801 0 Normal
08/29/2026 11 AM PDT 96.57 6801 0 Normal
08/29/2026 12 PM PDT 96.57 6801 0 Normal
08/29/2026 01 PM PDT 96.57 6801 0 Normal
08/29/2026 02 PM PDT 96.58 6824 + Normal
08/29/2026 03 PM PDT 96.58 6824 0 Normal
08/29/2026 04 PM PDT 96.58 6824 0 Normal
08/29/2026 05 PM PDT 96.58 6824 0 Normal
08/29/2026 06 PM PDT 96.59 6848 + Normal
08/29/2026 07 PM PDT 96.59 6848 0 Normal
08/29/2026 08 PM PDT 96.59 6848 0 Normal
08/29/2026 09 PM PDT 96.59 6848 0 Normal
08/29/2026 10 PM PDT 96.59 6848 0 Normal
08/29/2026 11 PM PDT 96.59 6848 0 Normal
08/30/2026 12 AM PDT 96.59 6848 0 Normal
08/30/2026 01 AM PDT 96.59 6848 0 Normal
08/30/2026 02 AM PDT 96.59 6848 0 Normal
08/30/2026 03 AM PDT 96.60 6871 + Normal
08/30/2026 04 AM PDT 96.60 6871 0 Normal
08/30/2026 05 AM PDT 96.60 6871 0 Normal
08/30/2026 06 AM PDT 96.61 6894 + Normal
08/30/2026 07 AM PDT 96.61 6894 0 Normal
08/30/2026 08 AM PDT 96.62 6918 + Normal
08/30/2026 09 AM PDT 96.62 6918 0 Normal
08/30/2026 10 AM PDT 96.62 6918 0 Normal
08/30/2026 11 AM PDT 96.63 6942 + Normal
08/30/2026 12 PM PDT 96.63 6942 0 Normal
08/30/2026 01 PM PDT 96.63 6942 0 Normal
08/30/2026 02 PM PDT 96.64 6965 + Normal
08/30/2026 03 PM PDT 96.64 6965 0 Normal
08/30/2026 04 PM PDT 96.64 6965 0 Normal
08/30/2026 05 PM PDT 96.64 6965 0 Normal
08/30/2026 06 PM PDT 96.64 6965 0 Normal
08/30/2026 07 PM PDT 96.64 6965 0 Normal
08/30/2026 08 PM PDT 96.63 6942 - Normal
08/30/2026 09 PM PDT 96.63 6942 0 Normal
08/30/2026 10 PM PDT 96.63 6942 0 Normal
08/30/2026 11 PM PDT 96.62 6918 - Normal
08/31/2026 12 AM PDT 96.61 6894 - Normal
08/31/2026 01 AM PDT 96.61 6894 0 Normal
08/31/2026 02 AM PDT 96.60 6871 - Normal
08/31/2026 03 AM PDT 96.59 6848 - Normal
08/31/2026 04 AM PDT 96.58 6824 - Normal
08/31/2026 05 AM PDT 96.57 6801 - Normal
08/31/2026 06 AM PDT 96.56 6778 - Normal
08/31/2026 07 AM PDT 96.55 6755 - Normal
#
# FORECAST
#
# Date & Time (Local) Stage (Feet) Flow (cfs) Trend Forecast Status
# ---------------------------------------------------------------------------------
08/31/2026 08 AM PDT 96.54 6732 Normal
08/31/2026 09 AM PDT 96.53 6709 - Normal
08/31/2026 10 AM PDT 96.53 6709 0 Normal
08/31/2026 11 AM PDT 96.52 6686 - Normal
08/31/2026 12 PM PDT 96.52 6686 0 Normal
08/31/2026 01 PM PDT 96.52 6686 0 Normal
08/31/2026 02 PM PDT 96.52 6686 0 Normal
08/31/2026 03 PM PDT 96.52 6686 0 Normal
08/31/2026 04 PM PDT 96.51 6663 - Normal
08/31/2026 05 PM PDT 96.51 6663 0 Normal
08/31/2026 06 PM PDT 96.51 6663 0 Normal
08/31/2026 07 PM PDT 96.51 6663 0 Normal
08/31/2026 08 PM PDT 96.51 6663 0 Normal
08/31/2026 09 PM PDT 96.51 6663 0 Normal
08/31/2026 10 PM PDT 96.50 6640 - Normal
08/31/2026 11 PM PDT 96.50 6640 0 Normal
09/01/2026 12 AM PDT 96.49 6618 - Normal
09/01/2026 01 AM PDT 96.47 6572 - Normal
09/01/2026 02 AM PDT 96.45 6528 - Normal
09/01/2026 03 AM PDT 96.43 6483 - Normal
09/01/2026 04 AM PDT 96.41 6439 - Normal
09/01/2026 05 AM PDT 96.39 6395 - Normal
09/01/2026 06 AM PDT 96.36 6330 - Normal
09/01/2026 07 AM PDT 96.35 6308 - Normal
09/01/2026 08 AM PDT 96.33 6265 - Normal
09/01/2026 09 AM PDT 96.32 6244 - Normal
09/01/2026 10 AM PDT 96.31 6222 - Normal
09/01/2026 11 AM PDT 96.30 6201 - Normal
09/01/2026 12 PM PDT 96.29 6178 - Normal
09/01/2026 01 PM PDT 96.29 6178 0 Normal
09/01/2026 02 PM PDT 96.28 6155 - Normal
09/01/2026 03 PM PDT 96.28 6155 0 Normal
09/01/2026 04 PM PDT 96.28 6155 0 Normal
09/01/2026 05 PM PDT 96.28 6155 0 Normal
09/01/2026 06 PM PDT 96.27 6133 - Normal
09/01/2026 07 PM PDT 96.27 6133 0 Normal
09/01/2026 08 PM PDT 96.28 6155 + Normal
09/01/2026 09 PM PDT 96.28 6155 0 Normal
09/01/2026 10 PM PDT 96.28 6155 0 Normal
09/01/2026 11 PM PDT 96.28 6155 0 Normal
09/02/2026 12 AM PDT 96.28 6155 0 Normal
09/02/2026 01 AM PDT 96.28 6155 0 Normal
09/02/2026 02 AM PDT 96.28 6155 0 Normal
09/02/2026 03 AM PDT 96.28 6155 0 Normal
09/02/2026 04 AM PDT 96.28 6155 0 Normal
09/02/2026 05 AM PDT 96.28 6155 0 Normal
09/02/2026 06 AM PDT 96.28 6155 0 Normal
09/02/2026 07 AM PDT 96.28 6155 0 Normal
09/02/2026 08 AM PDT 96.28 6155 0 Normal
09/02/2026 09 AM PDT 96.28 6155 0 Normal
09/02/2026 10 AM PDT 96.28 6155 0 Normal
09/02/2026 11 AM PDT 96.28 6155 0 Normal
09/02/2026 12 PM PDT 96.28 6155 0 Normal
09/02/2026 01 PM PDT 96.28 6155 0 Normal
09/02/2026 02 PM PDT 96.28 6155 0 Normal
09/02/2026 03 PM PDT 96.28 6155 0 Normal
09/02/2026 04 PM PDT 96.28 6155 0 Normal
09/02/2026 05 PM PDT 96.28 6155 0 Normal
09/02/2026 06 PM PDT 96.28 6155 0 Normal
09/02/2026 07 PM PDT 96.28 6155 0 Normal
09/02/2026 08 PM PDT 96.29 6178 + Normal
09/02/2026 09 PM PDT 96.29 6178 0 Normal
09/02/2026 10 PM PDT 96.29 6178 0 Normal
09/02/2026 11 PM PDT 96.29 6178 0 Normal
09/03/2026 12 AM PDT 96.29 6178 0 Normal
09/03/2026 01 AM PDT 96.29 6178 0 Normal
09/03/2026 02 AM PDT 96.29 6178 0 Normal
09/03/2026 03 AM PDT 96.29 6178 0 Normal
09/03/2026 04 AM PDT 96.29 6178 0 Normal
09/03/2026 05 AM PDT 96.29 6178 0 Normal
09/03/2026 06 AM PDT 96.29 6178 0 Normal
09/03/2026 07 AM PDT 96.29 6178 0 Normal
09/03/2026 08 AM PDT 96.29 6178 0 Normal
09/03/2026 09 AM PDT 96.29 6178 0 Normal
09/03/2026 10 AM PDT 96.29 6178 0 Normal
09/03/2026 11 AM PDT 96.29 6178 0 Normal
09/03/2026 12 PM PDT 96.29 6178 0 Normal
09/03/2026 01 PM PDT 96.29 6178 0 Normal
09/03/2026 02 PM PDT 96.29 6178 0 Normal
09/03/2026 03 PM PDT 96.29 6178 0 Normal
09/03/2026 04 PM PDT 96.29 6178 0 Normal
09/03/2026 05 PM PDT 96.29 6178 0 Normal
09/03/2026 06 PM PDT 96.29 6178 0 Normal
09/03/2026 07 PM PDT 96.29 6178 0 Normal
09/03/2026 08 PM PDT 96.30 6201 + Normal
09/03/2026 09 PM PDT 96.30 6201 0 Normal
09/03/2026 10 PM PDT 96.30 6201 0 Normal
09/03/2026 11 PM PDT 96.30 6201 0 Normal
09/04/2026 12 AM PDT 96.30 6201 0 Normal
09/04/2026 01 AM PDT 96.30 6201 0 Normal
09/04/2026 02 AM PDT 96.31 6222 + Normal
09/04/2026 03 AM PDT 96.31 6222 0 Normal
09/04/2026 04 AM PDT 96.31 6222 0 Normal
09/04/2026 05 AM PDT 96.31 6222 0 Normal
09/04/2026 06 AM PDT 96.31 6222 0 Normal
09/04/2026 07 AM PDT 96.32 6244 + Normal
09/04/2026 08 AM PDT 96.32 6244 0 Normal
09/04/2026 09 AM PDT 96.33 6265 + Normal
09/04/2026 10 AM PDT 96.33 6265 0 Normal
09/04/2026 11 AM PDT 96.33 6265 0 Normal
09/04/2026 12 PM PDT 96.34 6287 + Normal
09/04/2026 01 PM PDT 96.34 6287 0 Normal
09/04/2026 02 PM PDT 96.34 6287 0 Normal
09/04/2026 03 PM PDT 96.34 6287 0 Normal
09/04/2026 04 PM PDT 96.34 6287 0 Normal
09/04/2026 05 PM PDT 96.34 6287 0 Normal
09/04/2026 06 PM PDT 96.34 6287 0 Normal
09/04/2026 07 PM PDT 96.34 6287 0 Normal
09/04/2026 08 PM PDT 96.35 6308 + Normal
09/04/2026 09 PM PDT 96.35 6308 0 Normal
09/04/2026 10 PM PDT 96.35 6308 0 Normal
09/04/2026 11 PM PDT 96.35 6308 0 Normal
09/05/2026 12 AM PDT 96.35 6308 0 Normal
09/05/2026 01 AM PDT 96.35 6308 0 Normal
09/05/2026 02 AM PDT 96.35 6308 0 Normal
09/05/2026 03 AM PDT 96.35 6308 0 Normal
09/05/2026 04 AM PDT 96.35 6308 0 Normal
09/05/2026 05 AM PDT 96.35 6308 0 Normal
#
# NOTE 1: Stages are rounded to the nearest hundredth (.01) of a foot.
# NOTE 2: Flows are rounded to the nearest (1) cfs.
# NOTE 3: Trends are determined using hourly change in unrounded stage and flow.
# NOTE 4: Maximum Values are determined using unrounded stage and flow.
|